Location: Unspecified
(0.0000°N, 0.0000°E)
Time: 12:21:39
(UTC+00:00)

COSMOS 2497 - Pass Details

Date: 20 December 2025
Orbit: 1478 x 1511 km, 82.4° (Epoch: 13 January)

Event Time Altitude Azimuth Distance (km) Brightness Sun altitude
Exits shadow 21:34:50 38° 239° (WSW) 2,128 ? -48.1°
Drops below altitude 10° 21:41:08 10° 199° (SSW) 3,648 ? -49.4°
Sets 21:44:15 0° 192° (SSW) 4,635 ? -50.0°
